Weather History for Aurora, NE

Change the Weather History Date:

Sunday, May 11, 2014

  Actual Average Record
Temperature  
Mean Temperature 58 °F -  
Max Temperature 65 °F 73 °F 88 °F (1967)
Min Temperature 50 °F 48 °F 31 °F (1979)
Degree Days  
Heating Degree Days 8    
Growing Degree Days 8 (Base 50)    
Moisture  
Dew Point 52 °F    
Average Humidity 83    
Maximum Humidity 100    
Minimum Humidity 32    
Precipitation  
Precipitation 2.02 in - - ()
Sea Level Pressure  
Sea Level Pressure 29.70 in    
Wind  
Wind Speed 17 mph (NE)    
Max Wind Speed 30 mph    
Max Gust Speed 39 mph    
Visibility 9 miles    
Events Rain , Thunderstorm    
Averages and records for this station are not official NWS values.
T = Trace of Precipitation, MM = Missing Value Source: NWS Daily Summary

Daily Weather History Graph

Daily Weather History Graph

Search for Another Location

Airport:

Trip Planner

Search our weather history database for the weather conditions in past years. The results will help you decide how hot, cold, wet, or windy it might be!

Date:

Astronomy

May. 11, 2014 Rise Set
Actual Time 6:18 AM CDT 8:38 PM CDT
Civil Twilight 5:47 AM CDT 9:09 PM CDT
Nautical Twilight 5:09 AM CDT 9:47 PM CDT
Astronomical Twilight 4:27 AM CDT 10:30 PM CDT
Moon 5:34 PM CDT (5/11) 4:25 AM CDT (5/11)
Length of Visible Light 15h 22m
Length of Day
14h 20m
Waxing Gibbous, 89% of the Moon is Illuminated
May 11
Waxing Gibbous
May 14
Full
May 21
Last Quarter
May 28
New
Jun 5
First Quarter

Hourly Weather History & Observations

Time (CDT) Temp. Dew Point Humidity Pressure Visibility Wind Dir Wind Speed Gust Speed Precip Events Conditions
12:15 AM 63.1 °F 36.7 °F 37% 29.75 in 10.0 mi NE 12.7 mph - N/A   Clear
12:35 AM 64.8 °F 34.9 °F 33% 29.77 in 10.0 mi ENE 13.8 mph - N/A   Clear
12:55 AM 64.9 °F 34.9 °F 33% 29.79 in 10.0 mi ENE 10.4 mph - N/A   Clear
1:15 AM 64.9 °F 34.7 °F 33% 29.77 in 10.0 mi NE 13.8 mph - N/A   Scattered Clouds
1:35 AM 65.3 °F 34.9 °F 32% 29.78 in 10.0 mi NE 10.4 mph - N/A   Mostly Cloudy
1:55 AM 64.9 °F 36.1 °F 34% 29.78 in 10.0 mi NE 11.5 mph - N/A   Overcast
2:15 AM 64.6 °F 37.8 °F 37% 29.77 in 10.0 mi NE 13.8 mph - N/A   Mostly Cloudy
2:35 AM 64.0 °F 40.1 °F 41% 29.77 in 10.0 mi NE 13.8 mph - N/A   Mostly Cloudy
2:55 AM 63.7 °F 41.2 °F 44% 29.76 in 10.0 mi ENE 12.7 mph - N/A   Scattered Clouds
3:15 AM 63.5 °F 42.1 °F 46% 29.74 in 10.0 mi ENE 15.0 mph - N/A   Mostly Cloudy
3:35 AM 63.0 °F 42.4 °F 47% 29.73 in 10.0 mi NE 15.0 mph - N/A   Scattered Clouds
3:55 AM 62.6 °F 42.8 °F 48% 29.71 in 10.0 mi ENE 16.1 mph - N/A   Mostly Cloudy
4:15 AM 62.4 °F 43.3 °F 50% 29.70 in 10.0 mi ENE 16.1 mph - N/A   Scattered Clouds
4:35 AM 62.6 °F 44.1 °F 51% 29.72 in 10.0 mi East 13.8 mph - N/A Thunderstorm Thunderstorm
4:55 AM 61.0 °F 46.9 °F 60% 29.74 in 7.0 mi ENE 12.7 mph 19.6 mph 0.04 in Rain , Thunderstorm Heavy Thunderstorms and Rain
5:15 AM 57.4 °F 51.1 °F 79% 29.70 in 3.0 mi ENE 17.3 mph - 0.08 in Rain , Thunderstorm Thunderstorms and Rain
5:35 AM 57.0 °F 52.7 °F 85% 29.70 in 7.0 mi ENE 17.3 mph - 0.14 in Rain , Thunderstorm Light Thunderstorms and Rain
5:55 AM 56.7 °F 52.5 °F 86% 29.79 in 10.0 mi WNW 3.5 mph - 0.16 in Rain , Thunderstorm Thunderstorms and Rain
6:15 AM 57.2 °F 52.3 °F 84% 29.76 in 3.0 mi ENE 21.9 mph 28.8 mph 0.34 in Rain , Thunderstorm Heavy Thunderstorms and Rain
6:35 AM 55.9 °F 53.2 °F 91% 29.82 in 4.0 mi NNW 15.0 mph 21.9 mph 0.76 in Rain , Thunderstorm Rain
6:55 AM 55.6 °F 53.6 °F 93% 29.79 in 10.0 mi NNE 19.6 mph - 0.93 in Rain , Thunderstorm Light Thunderstorms and Rain
7:15 AM 55.4 °F 53.6 °F 94% 29.74 in 3.0 mi NE 26.5 mph 31.1 mph 0.19 in Rain , Thunderstorm Light Thunderstorms and Rain
7:35 AM 55.2 °F 53.6 °F 94% 29.71 in 10.0 mi ENE 26.5 mph 32.2 mph 0.20 in Rain Rain
7:55 AM 55.6 °F 53.6 °F 93% 29.71 in 10.0 mi ENE 29.9 mph 35.7 mph 0.20 in   Overcast
8:15 AM 56.3 °F 53.8 °F 91% 29.73 in 10.0 mi ENE 21.9 mph 27.6 mph N/A   Overcast
8:35 AM 56.8 °F 53.6 °F 89% 29.73 in 10.0 mi ENE 27.6 mph 33.4 mph N/A   Overcast
8:55 AM 57.2 °F 54.0 °F 89% 29.73 in 10.0 mi NE 20.7 mph 28.8 mph N/A   Overcast
9:15 AM 57.2 °F 54.0 °F 89% 29.74 in 10.0 mi NE 19.6 mph 25.3 mph N/A   Overcast
9:35 AM 57.2 °F 53.8 °F 88% 29.74 in 10.0 mi NE 19.6 mph 26.5 mph N/A   Overcast
9:55 AM 57.2 °F 54.0 °F 89% 29.72 in 10.0 mi ENE 25.3 mph 31.1 mph N/A   Overcast
10:15 AM 57.4 °F 54.5 °F 90% 29.72 in 10.0 mi ENE 24.2 mph 29.9 mph N/A   Overcast
10:35 AM 57.7 °F 54.9 °F 90% 29.72 in 10.0 mi ENE 20.7 mph 25.3 mph N/A   Overcast
10:55 AM 58.1 °F 55.2 °F 90% 29.72 in 10.0 mi ENE 23.0 mph 26.5 mph N/A   Overcast
11:15 AM 58.1 °F 55.6 °F 91% 29.72 in 10.0 mi ENE 19.6 mph - N/A   Overcast
11:35 AM 58.6 °F 56.7 °F 93% 29.71 in 10.0 mi ENE 18.4 mph 24.2 mph N/A   Overcast
11:55 AM 59.5 °F 57.7 °F 94% 29.70 in 10.0 mi ENE 19.6 mph 25.3 mph N/A   Overcast
12:15 PM 60.1 °F 58.3 °F 94% 29.70 in 10.0 mi ENE 21.9 mph 25.3 mph N/A   Overcast
12:35 PM 60.8 °F 59.2 °F 94% 29.70 in 10.0 mi ENE 17.3 mph 21.9 mph N/A   Overcast
12:55 PM 61.5 °F 59.9 °F 94% 29.69 in 10.0 mi ENE 15.0 mph - N/A   Overcast
1:15 PM 61.7 °F 60.3 °F 95% 29.69 in 10.0 mi NE 12.7 mph - N/A   Overcast
1:35 PM 61.5 °F 60.1 °F 95% 29.70 in 10.0 mi NNE 10.4 mph - N/A   Overcast
1:55 PM 60.4 °F 59.0 °F 95% 29.68 in 10.0 mi NNE 15.0 mph - N/A   Overcast
2:15 PM 60.8 °F 59.2 °F 94% 29.66 in 10.0 mi NE 21.9 mph - N/A   Overcast
2:35 PM 61.5 °F 60.1 °F 95% 29.66 in 10.0 mi NE 18.4 mph - N/A   Overcast
2:55 PM 62.1 °F 60.8 °F 96% 29.64 in 10.0 mi NE 20.7 mph 24.2 mph N/A   Overcast
3:15 PM 62.1 °F 60.8 °F 96% 29.63 in 10.0 mi NE 20.7 mph 25.3 mph N/A   Overcast
3:35 PM 61.7 °F 60.3 °F 95% 29.61 in 10.0 mi NNE 21.9 mph 27.6 mph N/A   Overcast
3:55 PM 61.2 °F 60.1 °F 96% 29.61 in 7.0 mi NNE 19.6 mph - N/A Rain , Thunderstorm Light Thunderstorms and Rain
4:15 PM 60.3 °F 59.2 °F 96% 29.60 in 7.0 mi NNE 19.6 mph - 0.01 in Rain , Thunderstorm Rain
4:35 PM 60.1 °F 59.2 °F 97% 29.60 in 5.0 mi NE 20.7 mph - 0.10 in Rain , Thunderstorm Thunderstorms and Rain
4:55 PM 59.9 °F 59.0 °F 97% 29.52 in 7.0 mi NE 28.8 mph 34.5 mph 0.11 in Rain , Thunderstorm Light Thunderstorms and Rain
5:15 PM 59.9 °F 59.0 °F 97% 29.55 in 5.0 mi NNE 17.3 mph 24.2 mph 0.04 in Rain , Thunderstorm Rain
5:35 PM 59.9 °F 59.0 °F 97% 29.60 in 7.0 mi North 9.2 mph - 0.06 in Rain , Thunderstorm Light Thunderstorms and Rain
5:55 PM 59.2 °F 58.1 °F 96% 29.60 in 7.0 mi NNW 19.6 mph - 0.06 in Rain , Thunderstorm Light Thunderstorms and Rain
6:15 PM 59.2 °F 57.7 °F 95% 29.62 in 10.0 mi North 18.4 mph 25.3 mph N/A Thunderstorm Mostly Cloudy
6:35 PM 58.8 °F 56.7 °F 93% 29.63 in 10.0 mi North 19.6 mph 24.2 mph N/A Thunderstorm Mostly Cloudy
6:55 PM 57.2 °F 55.4 °F 94% 29.63 in 10.0 mi North 19.6 mph 24.2 mph N/A   Mostly Cloudy
7:15 PM 56.3 °F 54.7 °F 94% 29.63 in 10.0 mi North 20.7 mph 31.1 mph N/A   Overcast
7:35 PM 55.4 °F 54.0 °F 95% 29.63 in 7.0 mi North 20.7 mph 28.8 mph N/A Thunderstorm Overcast
7:55 PM 54.5 °F 53.1 °F 95% 29.65 in 10.0 mi North 23.0 mph 34.5 mph N/A Thunderstorm Overcast
8:15 PM 53.8 °F 52.2 °F 94% 29.68 in 10.0 mi North 24.2 mph 34.5 mph N/A   Overcast
8:35 PM 54.0 °F 52.3 °F 94% 29.70 in 10.0 mi North 19.6 mph 27.6 mph N/A Rain Light Rain
8:55 PM 53.6 °F 52.0 °F 94% 29.70 in 10.0 mi NW 10.4 mph 31.1 mph 0.03 in Rain Light Rain
9:15 PM 53.8 °F 52.0 °F 94% 29.71 in 10.0 mi North 28.8 mph 36.8 mph N/A   Overcast
9:35 PM 53.1 °F 52.0 °F 96% 29.70 in 7.0 mi North 27.6 mph 36.8 mph N/A   Overcast
9:55 PM 53.6 °F 51.8 °F 94% 29.76 in 10.0 mi North 20.7 mph 36.8 mph N/A Thunderstorm Overcast
10:15 PM 51.8 °F 51.3 °F 98% 29.72 in 2.0 mi North 26.5 mph 36.8 mph 0.17 in Rain , Thunderstorm Light Thunderstorms and Rain
10:35 PM 51.8 °F 51.8 °F 100% 29.76 in 10.0 mi North 27.6 mph 39.1 mph 0.18 in Rain Light Rain
10:55 PM 51.1 °F 51.1 °F 100% 29.77 in 1.2 mi North 25.3 mph 35.7 mph 0.41 in Rain , Thunderstorm Heavy Thunderstorms and Rain
11:15 PM 50.9 °F 50.9 °F 100% 29.77 in 10.0 mi North 20.7 mph 33.4 mph 0.03 in Rain Light Rain
11:35 PM 50.5 °F 50.5 °F 100% 29.78 in 10.0 mi North 24.2 mph 29.9 mph 0.03 in Rain Light Rain
11:55 PM 50.4 °F 50.4 °F 100% 29.78 in 4.0 mi North 23.0 mph 31.1 mph 0.08 in Rain Light Rain